sat.trackr.live / text

‹ back to catalog

KUIPER-00612

NORAD 69772 · 2026-151K

PAYLOAD ACTIVE UNKNOWN

§ Identity

Operator
Country
US
Launch date
2026-07-02
Launch site
AFETR
Launch vehicle
Mass (kg)
RCS (m²)

External: N2YO · Heavens-Above · Gunter

§ Orbital elements

Epoch: 2026-09-20T04:50:06.405792Z

Period
97.32 min
Inclination
51.9008°
Eccentricity
0.0001333
Mean motion
14.79654526 rev/d
Perigee alt
629.5 km
Apogee alt
631.3 km
Semi-major
7,008.6 km
B*
6.4630e-3
RAAN
233.0197°
Arg perigee
81.7851°
Mean anomaly
278.3262°
Rev number
1,209

§ Raw data

KUIPER-006121 69772U 26151K   26263.20146303  .00049082  00000+0  64630-2 0  99972 69772  51.9008 233.0197 0001333  81.7851 278.3262 14.79654526 12092

JSON: /api/v1/satellites/69772 · /tle

For live sub-satellite position, see the globe view (requires WebGL).

§ Visibility from observer

Set your observer location to see the next 7 days of passes ≥ 10°. The values pass through the URL so the page stays shareable.

No JS? Fill the form by hand. The geolocation button needs JavaScript.